Volver al catálogo

COSMOS 970 DEB

ActivoLEO
NORAD 12862·DEBRIS·🇷🇺 Russia

Lanzado Dec 21, 1977 desde Baikonur Cosmodrome

Loading…

Próximos Pases (próximas 24 horas)

TLE

ActualizadoSource: Space-Track

Época: Sep 14, 2026, 07:57 UTC

1 12862U 77121AQ  26257.33179817  .00001004  00000-0  52922-3 0  9996
2 12862  66.2160 223.0060 0128453 142.2089   7.1091 14.13996328363459

Sigue COSMOS 970 DEB en tiempo real con AllMySat

Download on the App Store